[[{"header":{"parameterUnit":"m.s-1","parameterCategory":1,"la1":30.2991,"la2":30.254,"lo1":-89.0895,"lo2":-89.0444,"dy":0.0017,"dx":0.0017,"nx":28,"ny":28,"refTime":"2024-10-19T03:00:00:Z","depth":0,"parameterNumber":2,"parameterNumberName":"U-component_of_WINDS"},"data":[0,0,0,0,0,0,0,0,0,0,0,0,0,0,0,0,0,0,0,0,0,0,0,0,0,0,0,0,0,0,0,0,0,0,0,0,0,0,0,0,0,0,0,0,0,0,0,0,0,0,0,0,0,0,0,0,0,0,-3.6017,-3.6018,0,-3.6063,-3.6063,-3.6064,-3.5994,-3.5992,-3.5989,-3.5987,-3.6034,-3.6037,-3.6041,0,0,0,0,0,0,0,0,0,0,0,0,0,-3.5871,-3.5874,-3.6017,-3.6018,-3.6018,-3.6063,-3.6063,-3.6064,-3.5995,-3.5992,-3.5989,-3.5986,-3.6033,-3.6037,-3.6041,0,0,0,0,0,0,0,0,0,0,0,0,0,-3.5927,-3.5875,-3.6017,-3.5989,-3.5987,-3.6062,-3.6063,-3.6064,-3.5995,-3.5992,-3.5988,-3.5985,-3.6031,-3.6037,-3.6042,-3.6147,0,0,-3.6058,-3.606,0,0,0,0,0,0,0,0,-3.5924,-3.5933,-3.5993,-3.5991,-3.5989,-3.6019,-3.6029,-3.6092,-3.5996,-3.5992,-3.5987,-3.5983,-3.6032,-3.6037,-3.6053,-3.6149,-3.6151,-3.6058,-3.6061,-3.6064,-3.6065,0,0,0,0,0,0,0,-3.592,-3.593,-3.6035,-3.5994,-3.5991,-3.5974,-3.5978,-3.604,-3.6032,-3.5992,-3.5987,-3.5994,-3.603,-3.6049,-3.6054,-3.6151,-3.6058,-3.6063,-3.6066,-3.6068,-3.6336,-3.634,0,0,0,0,0,0,-3.592,-3.5928,-3.6034,-3.6036,-3.5947,-3.598,-3.5984,-3.6013,-3.6031,-3.603,-3.5997,-3.599,-3.6041,-3.6048,-3.6055,-3.618,-3.6064,-3.6069,-3.6072,-3.6332,-3.6337,-3.6341,0,0,0,0,0,0,-3.5917,-3.593,-3.6032,-3.5981,-3.5992,-3.5986,-3.6019,-3.6016,-3.6034,-3.6034,-3.6032,-3.6017,-3.6039,-3.6048,-3.6125,-3.6181,-3.6071,-3.6076,-3.6328,-3.6334,-3.6339,-3.6431,0,0,0,0,0,0,-3.5913,-3.5929,-3.5969,-3.5982,-3.5995,-3.6101,-3.6022,-3.6019,-3.6043,-3.6035,-3.6053,-3.6052,-3.6037,-3.6117,-3.613,-3.6186,-3.608,-3.6322,-3.633,-3.6337,-3.6423,-3.6439,-3.6453,0,0,0,0,0,-3.5908,-3.5993,-3.5971,-3.5985,-3.6045,-3.6104,-3.6111,-3.6092,-3.6048,-3.6088,-3.6088,-3.6052,-3.6172,-3.6126,-3.6139,-3.6198,-3.6319,-3.6328,-3.6337,-3.6416,-3.6436,-3.6453,0,0,0,0,0,0,-3.5986,-3.5994,-3.597,-3.6062,-3.6083,-3.6092,-3.6142,-3.6113,-3.6147,-3.6138,-3.6112,-3.6117,-3.6199,-3.6206,-3.6154,-3.6301,-3.6238,-3.6251,-3.6294,-3.6313,-3.6328,-3.6325,-3.6084,0,0,0,0,0,-3.6014,-3.6061,-3.6065,-3.6146,-3.6157,-3.6148,-3.6173,-3.6156,-3.6177,-3.6185,-3.6191,-3.6213,-3.6255,-3.6284,-3.6323,-3.6423,-3.6426,-3.647,-3.6485,-3.6498,-3.6509,-3.6563,-3.6583,-3.6371,-3.6371,-3.637,0,0,-3.6072,-3.6082,-3.6113,-3.6162,-3.6176,-3.6226,-3.6156,-3.6211,-3.6248,-3.6193,-3.6267,-3.6272,-3.6294,-3.6383,-3.6422,-3.6391,-3.6568,-3.6509,-3.6519,-3.6523,-3.6574,-3.6594,-3.6612,-3.6377,-3.6376,-3.6375,0,0,-3.6204,-3.6216,-3.6284,-3.63,-3.6323,-3.6316,-3.6333,-3.6347,-3.6348,-3.6421,-3.6381,-3.6425,-3.6499,-3.6517,-3.6535,-3.6675,-3.6643,-3.6688,-3.6768,-3.6821,-3.6838,-3.6853,-3.6903,-3.6922,-3.6699,-3.6699,-3.6699,0,-3.6273,-3.6347,-3.6323,-3.6382,-3.6405,-3.6357,-3.6427,-3.6444,-3.6478,-3.6495,-3.6459,-3.6552,-3.6564,-3.6657,-3.6691,-3.6707,-3.6726,-3.6686,-3.6837,-3.6852,-3.6865,-3.6913,-3.6932,-3.6705,-3.6704,-3.6703,-3.6703,0,-3.6431,-3.6483,-3.6536,-3.6571,-3.6599,-3.6663,-3.665,-3.6681,-3.6662,-3.6659,-3.6735,-3.6747,-3.6789,-3.6809,-3.679,-3.69,-3.688,-3.6841,-3.6778,-3.6891,-3.6936,-3.6954,-3.6712,-3.671,-3.6709,-3.6707,0,0,-3.6614,-3.6635,-3.6655,-3.6671,-3.6693,-3.6732,-3.6794,-3.6835,-3.6863,-3.6888,-3.694,-3.7004,-3.6969,-3.699,-3.6973,-3.702,-3.7131,-3.6975,-3.6976,-3.7005,-3.7254,-3.7284,-3.7305,-3.7109,-3.7113,-3.7115,-3.7252,0,-3.6746,-3.6853,-3.6835,-3.6939,-3.6987,-3.6943,-3.6997,-3.7016,-3.7015,-3.7056,-3.7055,-3.7101,-3.705,-3.7063,-3.7107,-3.7108,-3.7181,-3.7098,-3.7158,-3.7161,-3.7155,-3.7328,-3.736,-3.7489,-3.7269,-3.7272,-3.7274,0,-3.6915,-3.6947,-3.7056,-3.7071,-3.7091,-3.714,-3.7176,-3.7215,-3.7236,-3.7232,-3.7257,-3.7231,-3.7294,-3.7229,-3.7315,-3.7259,-3.7283,-3.7287,-3.7291,-3.7297,-3.7225,-3.734,-3.7529,-3.7549,-3.7302,-3.7299,-3.7297,0,-3.7039,-3.7109,-3.7184,-3.7198,-3.7217,-3.7253,-3.7263,-3.728,-3.7306,-3.7338,-3.7354,-3.7393,-3.7414,-3.7445,-3.7431,-3.7385,-3.752,-3.7454,-3.7519,-3.752,-3.7551,-3.7549,-3.7747,-3.7564,-3.7564,-3.7563,-3.7563,0,-3.7189,-3.7258,-3.724,-3.7286,-3.7362,-3.734,-3.7416,-3.742,-3.7436,-3.7483,-3.7447,-3.7491,-3.7469,-3.7512,-3.7501,-3.7575,-3.7584,-3.7584,-3.758,-3.7588,-3.7588,-3.7604,-3.7595,-3.7568,-3.7567,-3.7566,-3.7565,0,-3.7341,-3.7331,-3.741,-3.7422,-3.7426,-3.7482,-3.7492,-3.7535,-3.7532,-3.7591,-3.7604,-3.7598,-3.7647,-3.7636,-3.7689,-3.7682,-3.7775,-3.7759,-3.7768,-3.7765,-3.7832,-3.7826,-3.8048,-3.8076,-3.7873,-3.7875,-3.7877,0,-3.7438,-3.749,-3.7507,-3.7536,-3.7548,-3.7595,-3.7621,-3.7601,-3.763,-3.7659,-3.7699,-3.7745,-3.7781,-3.7861,-3.7862,-3.7903,-3.7889,-3.7964,-3.7895,-3.7901,-3.7892,-3.7889,-3.7895,-3.7978,-3.798,-3.7982,-3.7983,0,-3.7612,-3.7605,-3.7644,-3.7683,-3.7716,-3.7745,-3.7771,-3.7796,-3.7778,-3.7813,-3.7862,-3.789,-3.7945,-3.7991,-3.8029,-3.8039,-3.8009,-3.8005,-3.8023,-3.8032,-3.8035,-3.8035,-3.7807,-3.8,-3.7999,-3.7997,-3.7996,-3.7996,-3.774,-3.7785,-3.7804,-3.785,-3.7867,-3.7892,-3.7934,-3.7936,-3.7977,-3.802,-3.8005,-3.8063,-3.8083,-3.8131,-3.8145,-3.819,-3.8162,-3.8187,-3.8194,-3.8201,-3.821,-3.8027,-3.8197,-3.8196,-3.8196,-3.8195,-3.8195,0,-3.7913,-3.7924,-3.7966,-3.8003,-3.804,-3.8008,-3.8035,-3.8067,-3.8118,-3.8139,-3.8175,-3.8233,-3.8278,-3.8282,-3.8325,-3.836,-3.8347,-3.8372,-3.837,-3.8373,-3.8232,-3.8213,-3.8381,-3.8381,-3.8381,-3.8381,-3.8381,-3.8381,-3.8008,-3.8082,-3.8077,-3.816,-3.817,-3.8226,-3.8244,-3.8268,-3.8285,-3.8351,-3.8388,-3.8391,-3.8406,-3.8449,-3.8489,-3.8489,-3.8507,-3.8537,-3.8532,-3.8401,-3.8382,-3.8365,-3.8347,-3.8541,-3.8541,-3.867,-3.8671,-3.8672]},{"header":{"parameterUnit":"m.s-1","parameterCategory":1,"la1":30.2991,"la2":30.254,"lo1":-89.0895,"lo2":-89.0444,"dy":0.0017,"dx":0.0017,"nx":28,"ny":28,"refTime":"2024-10-19T03:00:00:Z","depth":0,"parameterNumber":3,"parameterNumberName":"V-component_of_WINDS"},"data":[0,0,0,0,0,0,0,0,0,0,0,0,0,0,0,0,0,0,0,0,0,0,0,0,0,0,0,0,0,0,0,0,0,0,0,0,0,0,0,0,0,0,0,0,0,0,0,0,0,0,0,0,0,0,0,0,0,0,-2.6403,-2.6403,0,-2.6403,-2.6403,-2.6403,-2.6368,-2.6367,-2.6366,-2.6365,-2.6365,-2.6366,-2.6367,0,0,0,0,0,0,0,0,0,0,0,0,0,-2.6372,-2.6372,-2.6403,-2.6403,-2.6403,-2.6403,-2.6403,-2.6403,-2.6368,-2.6367,-2.6365,-2.6364,-2.6365,-2.6366,-2.6367,0,0,0,0,0,0,0,0,0,0,0,0,0,-2.638,-2.6373,-2.6403,-2.6386,-2.6384,-2.6403,-2.6403,-2.6403,-2.6368,-2.6367,-2.6365,-2.6364,-2.6364,-2.6366,-2.6367,-2.6403,0,0,-2.6371,-2.6372,0,0,0,0,0,0,0,0,-2.638,-2.6381,-2.6388,-2.6387,-2.6385,-2.6384,-2.6392,-2.6403,-2.6368,-2.6374,-2.6365,-2.6363,-2.6372,-2.6373,-2.6376,-2.6403,-2.6403,-2.6371,-2.6372,-2.6372,-2.6373,0,0,0,0,0,0,0,-2.6379,-2.6381,-2.6403,-2.6388,-2.6387,-2.6377,-2.6377,-2.6394,-2.6381,-2.6374,-2.6371,-2.6371,-2.6371,-2.6375,-2.6376,-2.6403,-2.6371,-2.6372,-2.6373,-2.6374,-2.6459,-2.6461,0,0,0,0,0,0,-2.6381,-2.6381,-2.6403,-2.6403,-2.6379,-2.6379,-2.6379,-2.6386,-2.6381,-2.6379,-2.6373,-2.637,-2.6373,-2.6374,-2.6376,-2.6417,-2.6372,-2.6374,-2.6374,-2.6458,-2.646,-2.6461,0,0,0,0,0,0,-2.638,-2.6383,-2.6403,-2.6391,-2.6393,-2.6381,-2.639,-2.6387,-2.639,-2.638,-2.6378,-2.6379,-2.6372,-2.6374,-2.6396,-2.6417,-2.6374,-2.6375,-2.6456,-2.6458,-2.646,-2.6502,0,0,0,0,0,0,-2.638,-2.6383,-2.6398,-2.6392,-2.6394,-2.6425,-2.6391,-2.6388,-2.6393,-2.6389,-2.6385,-2.6383,-2.6371,-2.6395,-2.6398,-2.6418,-2.6377,-2.6454,-2.6457,-2.646,-2.6499,-2.6505,-2.6511,0,0,0,0,0,-2.6379,-2.6409,-2.6398,-2.6401,-2.6411,-2.6426,-2.6427,-2.6413,-2.6394,-2.6408,-2.6402,-2.6384,-2.6414,-2.6397,-2.6401,-2.6422,-2.6453,-2.6456,-2.646,-2.6496,-2.6504,-2.6511,0,0,0,0,0,0,-2.6418,-2.6408,-2.6396,-2.6426,-2.6427,-2.642,-2.6437,-2.6422,-2.6428,-2.6424,-2.6406,-2.6405,-2.6431,-2.6428,-2.641,-2.6456,-2.643,-2.6434,-2.6457,-2.6464,-2.647,-2.6471,-2.6378,0,0,0,0,0,-2.643,-2.6443,-2.6434,-2.6461,-2.6462,-2.6449,-2.6455,-2.6444,-2.6444,-2.6444,-2.644,-2.6441,-2.645,-2.6457,-2.6466,-2.6498,-2.6496,-2.6514,-2.652,-2.6525,-2.6529,-2.6545,-2.6552,-2.6472,-2.6472,-2.6472,0,0,-2.6456,-2.6452,-2.6461,-2.6469,-2.6468,-2.6481,-2.645,-2.6466,-2.6475,-2.6447,-2.6468,-2.6464,-2.6464,-2.6491,-2.6503,-2.649,-2.655,-2.6529,-2.6533,-2.6534,-2.6549,-2.6557,-2.6564,-2.6475,-2.6474,-2.6474,0,0,-2.6509,-2.6507,-2.6529,-2.6529,-2.6528,-2.6519,-2.6525,-2.652,-2.6516,-2.6536,-2.6515,-2.6526,-2.6543,-2.6544,-2.6546,-2.6598,-2.6581,-2.6601,-2.6633,-2.6649,-2.6655,-2.6661,-2.6679,-2.6686,-2.6605,-2.6605,-2.6605,0,-2.654,-2.6559,-2.6543,-2.6559,-2.6563,-2.6537,-2.6559,-2.656,-2.6562,-2.6565,-2.655,-2.657,-2.6569,-2.6595,-2.6608,-2.6611,-2.6616,-2.6602,-2.6656,-2.6661,-2.6666,-2.6683,-2.669,-2.6607,-2.6607,-2.6607,-2.6607,0,-2.6598,-2.6612,-2.6629,-2.6632,-2.6637,-2.6657,-2.6642,-2.665,-2.6637,-2.663,-2.6651,-2.6647,-2.6654,-2.666,-2.6648,-2.6685,-2.6676,-2.6659,-2.6633,-2.6677,-2.6692,-2.6699,-2.6611,-2.661,-2.6609,-2.6609,0,0,-2.6677,-2.6669,-2.6675,-2.6676,-2.6672,-2.6682,-2.67,-2.6706,-2.6713,-2.6715,-2.6729,-2.6744,-2.6727,-2.673,-2.6718,-2.6732,-2.6772,-2.6713,-2.6712,-2.6724,-2.6812,-2.6825,-2.6833,-2.6761,-2.6762,-2.6763,-2.6812,0,-2.6728,-2.6758,-2.6742,-2.6774,-2.6786,-2.6761,-2.6776,-2.6775,-2.6768,-2.6777,-2.677,-2.678,-2.6758,-2.6759,-2.6772,-2.6765,-2.679,-2.6761,-2.6774,-2.6775,-2.6775,-2.6841,-2.6855,-2.6901,-2.6818,-2.6819,-2.6819,0,-2.6792,-2.6796,-2.6829,-2.6822,-2.6826,-2.684,-2.6844,-2.6853,-2.6851,-2.6845,-2.6848,-2.6832,-2.6848,-2.6822,-2.6844,-2.6825,-2.6829,-2.6826,-2.6828,-2.6829,-2.68,-2.6844,-2.6916,-2.6923,-2.6829,-2.6828,-2.6827,0,-2.6846,-2.6859,-2.688,-2.6881,-2.6874,-2.6884,-2.6882,-2.6879,-2.6883,-2.6886,-2.6889,-2.6894,-2.6898,-2.6902,-2.6888,-2.687,-2.6912,-2.6885,-2.6907,-2.6908,-2.6917,-2.6917,-2.6991,-2.692,-2.692,-2.692,-2.692,0,-2.6905,-2.6926,-2.6904,-2.6917,-2.694,-2.6921,-2.6944,-2.6939,-2.6936,-2.6947,-2.6926,-2.6937,-2.6917,-2.6926,-2.6915,-2.6935,-2.6937,-2.6932,-2.6929,-2.6934,-2.6935,-2.6937,-2.6933,-2.6922,-2.6921,-2.6921,-2.6921,0,-2.6969,-2.6956,-2.6977,-2.6968,-2.6966,-2.6983,-2.6975,-2.6986,-2.6977,-2.6992,-2.6994,-2.698,-2.699,-2.6976,-2.6984,-2.6976,-2.7003,-2.6996,-2.7004,-2.7002,-2.7025,-2.7023,-2.7103,-2.7113,-2.7036,-2.7036,-2.7037,0,-2.7008,-2.7023,-2.7015,-2.7021,-2.7019,-2.7029,-2.7033,-2.7015,-2.702,-2.7019,-2.703,-2.7037,-2.7042,-2.7058,-2.7049,-2.7055,-2.7047,-2.7075,-2.7048,-2.7052,-2.7047,-2.7047,-2.7048,-2.708,-2.7081,-2.7082,-2.7083,0,-2.7077,-2.7069,-2.7076,-2.708,-2.7085,-2.7088,-2.7088,-2.7094,-2.7075,-2.7082,-2.7091,-2.7095,-2.7102,-2.711,-2.7113,-2.711,-2.7093,-2.7091,-2.7096,-2.7102,-2.7106,-2.7104,-2.7019,-2.7089,-2.7089,-2.7088,-2.7088,-2.7088,-2.713,-2.7142,-2.7138,-2.7145,-2.7144,-2.7145,-2.7155,-2.7146,-2.7153,-2.7158,-2.7147,-2.7158,-2.7155,-2.7158,-2.7157,-2.7165,-2.7153,-2.7161,-2.7163,-2.7166,-2.7169,-2.7105,-2.7166,-2.7166,-2.7165,-2.7165,-2.7165,0,-2.7198,-2.7194,-2.7201,-2.7202,-2.7208,-2.7191,-2.719,-2.7196,-2.7207,-2.7205,-2.721,-2.722,-2.7227,-2.7217,-2.7223,-2.7231,-2.7224,-2.7233,-2.7232,-2.7232,-2.718,-2.7174,-2.7239,-2.7239,-2.7239,-2.7239,-2.7239,-2.7239,-2.7234,-2.7253,-2.7245,-2.7263,-2.7258,-2.7269,-2.727,-2.727,-2.7269,-2.7281,-2.7286,-2.728,-2.7275,-2.7279,-2.7285,-2.7282,-2.7285,-2.7297,-2.7292,-2.7243,-2.7236,-2.7229,-2.7224,-2.7298,-2.7298,-2.7343,-2.7343,-2.7344]}]]